{"data":{"norad_id":64365,"intl_designator":"2025-126X","name":"STARLINK-34479","alt_names":[],"object_type":"PAYLOAD","status":"ACTIVE","operator":null,"country":"US","launch_date":"2025-06-13","launch_site_code":"AFWTR","launch_vehicle":null,"mission":null,"orbit_class":"UNKNOWN","rcs_meters":null,"size_class":null,"mass_kg":null,"dimensions":null,"purposes":["comms"],"wikipedia_slug":null,"has_3d_model":false,"image_url":null,"decayed_at":null,"tle_current":{"epoch":"2026-05-24T21:49:07.855680Z","epoch_age_seconds":93437,"freshness":"FRESH","line1":"1 64365U 25126X   26144.90911870  .00002373  00000+0  20655-3 0  9997","line2":"2 64365  70.0005 202.4825 0003893 267.5469  92.5244 14.98334667 52096","mean_motion":14.98334667,"eccentricity":0.0003893,"inclination_deg":70.0005,"raan_deg":202.4825,"arg_perigee_deg":267.5469,"mean_anomaly_deg":92.5244,"bstar":0.00020655,"rev_number":5209,"period_min":96.106699772435,"perigee_km":569.3357541954,"apogee_km":574.74716314332,"semimajor_km":6950.1784586694,"source":"CELESTRAK","updated_at":"2026-05-25T13:38:20.406486Z"}}}